Regional Weather Roundup
Issued by NWS

Home | Current Version | Previous Version | Text Only | Print | Product List | Glossary On
Versions: 1 2 3 4 5 6 7 8 9 10 11 12 13 14 15 16 17 18 19 20 21 22 23 24 25 26 27 28 29 30 31 32 33 34 35 36 37 38 39 40 41 42 43 44 45 46 47 48 49 50
000
ASUS43 KMPX 010010
RWRMN
WEATHER ROUNDUP FOR MINNESOTA
NATIONAL WEATHER SERVICE TWIN CITIES/CHANHASSEN MN
700 PM CDT MON AUG 31 2015


NOTE: "FAIR" INDICATES FEW OR NO CLOUDS BELOW 12,000 FEET WITH NO
SIGNIFICANT WEATHER AND/OR OBSTRUCTIONS TO VISIBILITY. N/A MEANS
CURRENT SKY AND/OR WEATHER CONDITIONS ARE NOT AVAILABLE.

MNZ060>063-068>070-010100-
   Twin Cities Metro

CITY           SKY/WX    TMP DP  RH WIND       PRES   REMARKS
TWIN CITIES    PTCLDY    83  69  62 S12       29.89R
6HR MIN TEMP:  81; 6HR MAX TEMP:  86;

ST PAUL        CLEAR     82  71  69 S9        29.88S
CRYSTAL        CLEAR     84  68  58 S10G18    29.87R
BLAINE         PTCLDY    84  70  61 S14G20    29.88S
LAKEVILLE      CLEAR     79  72  78 CALM      29.90S
EDEN PRAIRIE   CLEAR     81  70  69 S8        29.88R
6HR MIN TEMP:  81; 6HR MAX TEMP:  85;

SOUTH ST PAUL  CLEAR     83  69  63 S7        29.89S
LAKE ELMO      FAIR      81  73  78 S5        29.90S
$$
MNZ001>005-007-008-013>017-022>024-027-028-010100-
   Northwest Minnesota

CITY           SKY/WX    TMP DP  RH WIND       PRES   REMARKS
BEMIDJI        CLOUDY    74  67  77 W3        29.84S
HALLOCK        PTSUNNY   79  50  36 SW13      29.77R
ROSEAU         CLOUDY    75  66  73 S3        29.79S
WARROAD        CLOUDY    73  66  78 S5        29.80R
THIEF RVR FALL CLOUDY   N/A N/A N/A SW6       29.81S
CROOKSTON      CLOUDY    77  61  57 NW9       29.82R
FOSSTON        CLOUDY    73  63  68 S3        29.84S
DETROIT LAKES  CLOUDY    73  64  73 CALM      29.86F
MOORHEAD       CLOUDY    75  66  73 CALM      29.84S
PARK RAPIDS    MOCLDY    78  66  66 W5        29.85R
MAHNOMEN       FAIR      75  63  66 CALM      29.84R
$$
MNZ006-009>011-018-025>026-010100-
   North Central Minnesota

CITY           SKY/WX    TMP DP  RH WIND       PRES   REMARKS
BAUDETTE       CLOUDY    71  66  84 SW5       29.80R
FLAG ISLAND    MOCLDY    72  64  78 S6        29.76S
INTL FALLS     MOCLDY    72  66  81 W7        29.80R
6HR MIN TEMP:  72; 6HR MAX TEMP:  82;

WASKISH        MOCLDY    70  66  88 SW6       29.82R
BIG FORK       PTCLDY    79  64  61 NW3       29.83R
LONGVILLE      MOCLDY    75  70  83 CALM      29.84R
GRAND RAPIDS     N/A     79  66  65 S6        29.84S
CRANE LAKE     PTCLDY    79  64  61 S5        29.81R
COOK           MOCLDY    79  66  65 SW5       29.83R
WALKER         FAIR      76  66  72 W3        29.84R
$$
MNZ012-019>021-037-010100-
   Northeast Minnesota

CITY           SKY/WX    TMP DP  RH WIND       PRES   REMARKS
DULUTH         PTCLDY    77  68  73 SW12      29.87R
6HR MIN TEMP:  77; 6HR MAX TEMP:  81;

ELY            PTCLDY    77  64  65 SW9       29.83S
HIBBING        PTCLDY    78  66  66 S8G18     29.84R
EVELETH        PTCLDY    77  68  73 SW9       29.86R
DULUTH HARBOR  CLEAR     81  72  74 SW10      29.84S
TWO HARBORS    PTCLDY    79  72  78 SW8       29.84S
SILVER BAY     CLEAR     77  66  69 S8        29.84S
GRAND MARAIS     N/A     57  55  93 W5        29.83S
G MARAIS ARPRT PTCLDY    70  63  78 S9        29.89R
$$
MNZ029>031-032-039>041-046>048-054>057-064-010100-
   West Central Minnesota

CITY           SKY/WX    TMP DP  RH WIND       PRES   REMARKS
FERGUS FALLS   PTSUNNY   75  66  73 NW5       29.84R
WHEATON        PTSUNNY   75  66  73 W5        29.85F
MORRIS         MOSUNNY   79  66  65 NW8       29.84R
ALEXANDRIA     PTCLDY    81  68  64 SW9       29.86S
ELBOW LAKE     FAIR      75  67  74 NW6       29.85R
WADENA         PTCLDY    77  66  69 W6        29.85R
GLENWOOD       CLEAR     81  70  69 S10       29.87S
APPLETON       SUNNY     82  70  65 SW6       29.83S
BENSON         MOSUNNY   82  66  57 SW6       29.84S
ORTONVILLE     MOSUNNY   81  64  57 N7        29.85R
MADISON        SUNNY     82  70  65 SW5       29.85R
WILLMAR        FAIR      81  70  69 CALM      29.88S
$$
MNZ033>034-036-042>043-049>051-058-059-010100-
   Central Minnesota

CITY           SKY/WX    TMP DP  RH WIND       PRES   REMARKS
ST CLOUD       CLEAR     79  69  71 S8        29.86S
6HR MIN TEMP:  79; 6HR MAX TEMP:  83;

SAUK CENTRE    CLOUDY    79  70  74 S7        29.86S
PAYNESVILLE    CLEAR     80  68  66 SE6       29.87F
AITKIN         PTCLDY    79  70  73 S8        29.84S
PINE RIVER     PTCLDY    79  70  73 S5        29.87S
BRAINERD       MOCLDY    79  68  69 S9        29.85R
STAPLES        PTCLDY    79  66  65 S7        29.84S
LONG PRAIRIE   MOCLDY    79  68  69 S8        29.86S
LITTLE FALLS   CLEAR     79  64  61 S8        29.86S
LITCHFIELD     CLEAR     81  72  74 SW3       29.88S
BUFFALO        CLEAR     80  68  65 S7        29.88F
MAPLE LAKE     CLEAR     79  71  76 S3        29.88S
$$
MNZ037-044-045-052-053-010100-
   East Central Minnesota

CITY           SKY/WX    TMP DP  RH WIND       PRES   REMARKS
PRINCETON      PTCLDY    81  70  69 S7        29.87S
MORA           CLEAR     77  64  65 SW9       29.89R
CAMBRIDGE      MOCLDY    82  68  61 S8        29.86S
RUSH CITY      PTCLDY    80  69  69 SW6       29.88S
MOOSE LAKE     CLEAR     79  66  65 SW8       29.84F
HINCKLEY       FAIR      79  70  73 SW8       29.88R
CLOQUET        CLEAR     79  66  65 S8        29.87S
MCGREGOR       PTCLDY    79  68  69 S7        29.87R
$$
MNZ071>073-080-081-089-090-097-098-010100-
   Southwest Minnesota

CITY           SKY/WX    TMP DP  RH WIND       PRES   REMARKS
MONTEVIDEO     MOSUNNY   84  70  61 SW7       29.86F
GRANITE FALLS  CLOUDY    81  72  74 CALM      29.87S
CANBY          SUNNY     83  68  60 SW5       29.87S
MARSHALL       PTSUNNY   82  68  61 S10       29.89S
REDWOOD FALLS  CLEAR     80  67  64 S9        29.88R
OLIVIA         PTCLDY    77  64  65 S8        29.87S
PIPESTONE      SUNNY     79  70  73 S7        29.91R
WINDOM         CLEAR     81  66  61 S9        29.91R
WORTHINGTON    CLEAR     77  66  69 S9        29.92R
JACKSON        CLEAR     79  68  69 S9        29.92S
TRACY          CLEAR     80  70  72 S6        29.89S
SLAYTON        SUNNY     78  70  76 CALM      29.92R
$$
MNZ065>067-074>077-082>085-091>093-010100-
   South Central Minnesota

CITY           SKY/WX    TMP DP  RH WIND       PRES   REMARKS
MANKATO        CLEAR     81  70  69 S9        29.90S
NEW ULM        CLEAR     79  66  65 SW7       29.89R
ST JAMES       CLEAR     79  72  78 S6        29.90S
FAIRMONT       CLEAR     81  66  61 S7        29.91S
GLENCOE        CLEAR     81  72  73 S6        29.88S
FARIBAULT      CLEAR     81  72  74 S5        29.91S
OWATONNA       CLEAR     81  70  69 S7        29.92S
WASECA         CLEAR     79  70  73 S5        29.93R
ALBERT LEA     CLEAR     81  70  69 S7        29.93S
$$
MNZ078>079-086>088-094>096-010100-
   Southeast Minnesota

CITY           SKY/WX    TMP DP  RH WIND       PRES   REMARKS
ROCHESTER      CLEAR     79  72  79 S9        29.95S
6HR MIN TEMP:  79; 6HR MAX TEMP:  82;

RED WING       CLEAR     82  70  65 S5        29.90R
STANTON        CLEAR     81  71  71 S5        29.89S
DODGE CENTER   CLEAR     79  72  78 S8        29.94S
WINONA         CLEAR     81  70  69 CALM      29.93F
AUSTIN         CLEAR     81  72  74 S5        29.94S
PRESTON        CLEAR     78  71  78 S7        29.96S
$$
ABBREVIATIONS USED IN REMARKS
   TC - TEMPERATURES IN CELSIUS
  WCI - WIND CHILL INDEX
   HX - HEAT INDEX
  VSB - VISIBILITY
$$



USA.gov is the U.S. government's official web portal to all federal, state and local government web resources and services.